{"data":{"norad_id":58893,"intl_designator":"2024-020T","name":"STARLINK-31255","alt_names":[],"object_type":"PAYLOAD","status":"ACTIVE","operator":null,"country":"US","launch_date":"2024-01-29","launch_site_code":"AFWTR","launch_vehicle":null,"mission":null,"orbit_class":"UNKNOWN","rcs_meters":null,"size_class":null,"mass_kg":null,"dimensions":null,"purposes":["comms"],"wikipedia_slug":null,"has_3d_model":false,"image_url":null,"decayed_at":null,"tle_current":{"epoch":"2026-09-20T00:50:59.233056Z","epoch_age_seconds":196457,"freshness":"STALE","line1":"1 58893U 24020T   26263.03540779 -.00001343  00000+0 -28627-4 0  9996","line2":"2 58893  53.1585 135.6373 0001719  72.3350 287.7841 15.34394161147880","mean_motion":15.34394161,"eccentricity":0.0001719,"inclination_deg":53.1585,"raan_deg":135.6373,"arg_perigee_deg":72.335,"mean_anomaly_deg":287.7841,"bstar":-2.8627e-5,"rev_number":14788,"period_min":93.8481152106,"perigee_km":461.54465158007,"apogee_km":463.89653842123,"semimajor_km":6840.8575950007,"source":"CELESTRAK","updated_at":"2026-09-21T09:00:33.994967Z"}}}